Weather in San Carlos

Venezuela     9°39′58″N   68°34′49″W
temp.,
°C
wind,
m/s
gust,
m/s
humid.,
%
clouds,
%
prec.,
mm/h
press.,
hPa
HPBL,
m
8 august, mon
mon823:00+22n219587 2.3 101324
02:00+21n1195100 2.4 101115
05:00+21nne119314 0.0 101111
08:00+24ne01898 0.0 1013110
11:00+28se23717 0.5 1013919
14:00+30se126635 1.6 1010959
17:00+28nw017292 0.5 1008331
20:00+24nnw11885 0.6 101013
9 august, tue
tue923:00+23n21884 0.1 101222
02:00+22nnw11885 0.1 101124
05:00+22n11906 0.0 101217
08:00+25nne01805 0.0 1013103
11:00+27ese118121 1.9 1013311
14:00+30s225935 3.1 10111393
17:00+30s226348 0.1 1010797
20:00+23nne229499 2.1 101324
10 august, wed
wed1023:00+22n2295100 2.0 101441
02:00+21nnw1194100 2.4 101214
05:00+21nne119663 1.2 101320
08:00+23ese1192100 1.6 1015103
11:00+26sse2389100 4.4 1015596
14:00+25s3492100 12.1 1014639
17:00+22wsw1399100 4.4 1013249
20:00+22nne1199100 6.8 101453
11 august, thu
thu1123:00+21ne1197100 0.4 101532
02:00+21nne119684 0.4 101319
05:00+21nne119555 0.0 101311
08:00+22ene119113 0.0 1015135
11:00+27se236810 0.0 1015932
14:00+28ssw246935 0.7 10121248
17:00+27wsw128182 1.8 1011424
20:00+23nne119448 2.3 101312
12 august, fri
fri1223:00+22nne1196100 1.0 101411
02:00+22n119791 1.9 101217
05:00+22n119693 0.1 101312
08:00+23nne00945 0.3 101469
11:00+26sse1185100 6.9 1014415
14:00+28s126697 9.3 1013935
17:00+28s1169100 0.0 1011892
20:00+23nnw1190100 0.5 101215